Dades meteomassalio
Diari Summary for Gener 20, 2017 Units:  Metric    English   Both
« Previous Day
Next Day »
Diari Semanal Mensual Anual Personalitzat
  Maxima: Minima: Mijana:
Temperatura: -17.8 °C -17.1 °C -15.8 °C
Rosada: -17.8 °C -18.9 °C -16.4 °C
Humitat: Humidity % 77 % 92 %
Velocitat del vent: 0 km/h 0 km/h 0.2 km/h
Racha vent: 0 km/h - -
Vent:- - SSW
Pressio: 0 hPa 34577.8 hPa -
Pluja: 457.2 mm    
Historical Graphs
 
 
Tabular Data for Gener 20, 2017
Time Temperature Dew Point Pressure Wind Wind Speed Wind Gust Humidity Rainfall Rate (Hourly) solar Conditions
-17.8 °C -17.8 °C 0 hPa Calm     Humidity % 0 mm SolarRadiationWatts/m^2 W/m2 Conditions
00:02 -16.9 °C -18.9 °C 34682.8 hPa Calm     77 % 0 mm 0.0 W/m2 CLR
00:07 -16.9 °C -18.9 °C 34682.8 hPa Calm     77 % 0 mm 0.0 W/m2 CLR
00:12 -16.8 °C -18.8 °C 34682.8 hPa Calm     77 % 0 mm 0.0 W/m2 CLR
00:17 -16.8 °C -18.8 °C 34682.8 hPa Calm     77 % 0 mm 0.0 W/m2 CLR
00:22 -16.8 °C -18.8 °C 34682.8 hPa Calm     78 % 0 mm 0.0 W/m2 CLR
00:28 -16.8 °C -18.8 °C 34682.8 hPa Calm     78 % 0 mm 0.0 W/m2 CLR
00:33 -16.8 °C -18.7 °C 34682.8 hPa Calm     79 % 0 mm 0.0 W/m2 CLR
00:38 -16.8 °C -18.7 °C 34669.3 hPa Calm     79 % 0 mm 0.0 W/m2 CLR
00:43 -16.9 °C -18.6 °C 34669.3 hPa Calm     80 % 0 mm 0.0 W/m2 CLR
00:48 -16.9 °C -18.6 °C 34669.3 hPa Calm     80 % 0 mm 0.0 W/m2 CLR
00:53 -16.9 °C -18.6 °C 34669.3 hPa Calm     80 % 0 mm 0.0 W/m2 CLR
00:58 -16.9 °C -18.5 °C 34659.1 hPa Calm     81 % 0 mm 0.0 W/m2 CLR
01:03 -16.9 °C -18.4 °C 34659.1 hPa Calm     82 % 0 mm 0.0 W/m2 CLR
01:08 -16.9 °C -18.4 °C 34659.1 hPa Calm     82 % 0 mm 0.0 W/m2 CLR
01:13 -16.9 °C -18.4 °C 34659.1 hPa Calm     82 % 0 mm 0.0 W/m2 CLR
01:18 -16.9 °C -18.3 °C 34659.1 hPa Calm     83 % 0 mm 0.0 W/m2 CLR
01:23 -16.9 °C -18.2 °C 34669.3 hPa Calm     84 % 0 mm 0.0 W/m2 CLR
01:28 -16.9 °C -18.2 °C 34669.3 hPa Calm     85 % 7.62 mm 0.0 W/m2 RA
01:33 -16.9 °C -18.1 °C 34659.1 hPa Calm     86 % 7.62 mm 0.0 W/m2 CLR
01:38 -16.9 °C -18.1 °C 34669.3 hPa Calm     86 % 12.7 mm 0.0 W/m2 RA
01:43 -16.9 °C -18 °C 34659.1 hPa Calm     87 % 12.7 mm 0.0 W/m2 RA
01:48 -17 °C -18.1 °C 34659.1 hPa Calm     87 % 12.7 mm 0.0 W/m2
01:53 -17 °C -17.9 °C 34659.1 hPa Calm     88 % 12.7 mm 0.0 W/m2 CLR
01:58 -17 °C -18 °C 34659.1 hPa Calm     88 % 20.32 mm 0.0 W/m2 RA
02:03 -17.1 °C -18 °C 34659.1 hPa Calm     88 % 20.32 mm 0.0 W/m2 CLR
02:08 -17.1 °C -17.9 °C 34645.6 hPa Calm     89 % 25.4 mm 0.0 W/m2 RA
02:13 -17.1 °C -17.9 °C 34659.1 hPa Calm     89 % 25.4 mm 0.0 W/m2
02:18 -17.1 °C -17.9 °C 34645.6 hPa Calm     89 % 25.4 mm 0.0 W/m2 CLR
02:23 -17.1 °C -17.8 °C 34645.6 hPa Calm     90 % 25.4 mm 0.0 W/m2 CLR
02:28 -17 °C -17.8 °C 34659.1 hPa Calm     90 % 25.4 mm 0.0 W/m2 RA
02:33 -17 °C -17.7 °C 34659.1 hPa SW 9 km/h 9 km/h 91 % 25.4 mm 0.0 W/m2
02:38 -16.9 °C -17.7 °C 34659.1 hPa Calm     91 % 20.32 mm 0.0 W/m2 CLR
02:43 -16.9 °C -17.7 °C 34645.6 hPa Calm     91 % 12.7 mm 0.0 W/m2 CLR
02:48 -16.9 °C -17.6 °C 34645.6 hPa Calm     91 % 12.7 mm 0.0 W/m2 CLR
02:53 -16.8 °C -17.6 °C 34645.6 hPa Calm     91 % 12.7 mm 0.0 W/m2 CLR
02:58 -16.8 °C -17.6 °C 34645.6 hPa Calm     91 % 12.7 mm 0.0 W/m2 CLR
03:03 -16.8 °C -17.6 °C 34659.1 hPa Calm     91 % 12.7 mm 0.0 W/m2 CLR
03:08 -16.8 °C -17.6 °C 34645.6 hPa Calm     91 % 7.62 mm 0.0 W/m2 CLR
03:13 -16.8 °C -17.4 °C 34645.6 hPa Calm     92 % 7.62 mm 0.0 W/m2 CLR
03:18 -16.8 °C -17.4 °C 34645.6 hPa Calm     92 % 12.7 mm 0.0 W/m2 RA
03:23 -16.8 °C -17.4 °C 34645.6 hPa Calm     92 % 12.7 mm 0.0 W/m2 CLR
03:28 -16.8 °C -17.4 °C 34645.6 hPa Calm     92 % 7.62 mm 0.0 W/m2 CLR
03:33 -16.8 °C -17.4 °C 34645.6 hPa Calm     92 % 7.62 mm 0.0 W/m2 CLR
03:38 -16.8 °C -17.4 °C 34645.6 hPa Calm     92 % 12.7 mm 0.0 W/m2 RA
03:43 -16.8 °C -17.4 °C 34645.6 hPa Calm     92 % 12.7 mm 0.0 W/m2
03:48 -16.7 °C -17.4 °C 34645.6 hPa Calm     92 % 12.7 mm 0.0 W/m2 CLR
03:53 -16.7 °C -17.3 °C 34645.6 hPa Calm     92 % 12.7 mm 0.0 W/m2 CLR
03:58 -16.6 °C -17.3 °C 34645.6 hPa Calm     92 % 12.7 mm 0.0 W/m2 RA
04:03 -16.6 °C -17.2 °C 34645.6 hPa Calm     92 % 12.7 mm 0.0 W/m2
04:08 -16.6 °C -17.2 °C 34645.6 hPa Calm     92 % 12.7 mm 0.0 W/m2 CLR
04:13 -16.6 °C -17.2 °C 34645.6 hPa Calm     92 % 12.7 mm 0.0 W/m2 CLR
04:18 -16.6 °C -17.2 °C 34645.6 hPa Calm     92 % 12.7 mm 0.0 W/m2 RA
04:23 -16.6 °C -17.2 °C 34645.6 hPa Calm     92 % 12.7 mm 0.0 W/m2
04:28 -16.6 °C -17.2 °C 34645.6 hPa Calm     92 % 12.7 mm 0.0 W/m2 CLR
04:33 -16.6 °C -17.2 °C 34645.6 hPa Calm     92 % 20.32 mm 0.0 W/m2 RA
04:38 -16.6 °C -17.2 °C 34645.6 hPa Calm     92 % 12.7 mm 0.0 W/m2
04:43 -16.5 °C -17.2 °C 34635.4 hPa Calm     92 % 12.7 mm 0.0 W/m2 CLR
04:48 -16.5 °C -17.2 °C 34635.4 hPa Calm     92 % 12.7 mm 0.0 W/m2 CLR
04:53 -16.5 °C -17.2 °C 34635.4 hPa Calm     92 % 12.7 mm 0.0 W/m2 CLR
04:58 -16.5 °C -17.2 °C 34635.4 hPa Calm     92 % 12.7 mm 0.0 W/m2 RA
05:03 -16.6 °C -17.2 °C 34625.2 hPa Calm     92 % 12.7 mm 0.0 W/m2
05:08 -16.6 °C -17.2 °C 34625.2 hPa Calm     92 % 12.7 mm 0.0 W/m2 CLR
05:13 -16.6 °C -17.2 °C 34635.4 hPa Calm     92 % 12.7 mm 0.0 W/m2 CLR
05:18 -16.6 °C -17.2 °C 34635.4 hPa Calm     92 % 12.7 mm 0.0 W/m2 CLR
05:23 -16.6 °C -17.2 °C 34635.4 hPa Calm     92 % 12.7 mm 0.0 W/m2 RA
05:28 -16.6 °C -17.2 °C 34635.4 hPa Calm     92 % 20.32 mm 0.0 W/m2 RA
05:33 -16.6 °C -17.2 °C 34635.4 hPa Calm     92 % 12.7 mm 0.0 W/m2
05:38 -16.6 °C -17.2 °C 34635.4 hPa Calm     92 % 12.7 mm 0.0 W/m2 CLR
05:43 -16.6 °C -17.2 °C 34635.4 hPa Calm     92 % 20.32 mm 0.0 W/m2 RA
05:48 -16.6 °C -17.2 °C 34635.4 hPa Calm     92 % 25.4 mm 0.0 W/m2 RA
05:53 -16.6 °C -17.2 °C 34635.4 hPa Calm     92 % 25.4 mm 0.0 W/m2
05:59 -16.6 °C -17.2 °C 34625.2 hPa Calm     93 % 20.32 mm 0.0 W/m2 CLR
06:04 -16.6 °C -17.2 °C 34625.2 hPa Calm     93 % 20.32 mm 0.0 W/m2 CLR
06:09 -16.6 °C -17.1 °C 34625.2 hPa Calm     93 % 25.4 mm 0.0 W/m2 RA
06:14 -16.6 °C -17.1 °C 34625.2 hPa Calm     93 % 25.4 mm 0.0 W/m2
06:19 -16.6 °C -17.1 °C 34625.2 hPa Calm     93 % 33.02 mm 0.0 W/m2 RA
06:24 -16.5 °C -17.1 °C 34625.2 hPa Calm     93 % 25.4 mm 0.0 W/m2 CLR
06:29 -16.5 °C -17.1 °C 34625.2 hPa Calm     93 % 20.32 mm 0.0 W/m2 CLR
06:34 -16.5 °C -17.1 °C 34625.2 hPa Calm     93 % 25.4 mm 0.0 W/m2 RA
06:39 -16.5 °C -17.1 °C 34625.2 hPa Calm     93 % 33.02 mm 0.0 W/m2 RA
06:44 -16.5 °C -17.1 °C 34625.2 hPa Calm     93 % 25.4 mm 0.0 W/m2 CLR
06:49 -16.5 °C -17.1 °C 34625.2 hPa Calm     93 % 25.4 mm 0.0 W/m2 RA
06:54 -16.5 °C -17.1 °C 34625.2 hPa Calm     93 % 33.02 mm 0.0 W/m2 RA
06:59 -16.5 °C -17.1 °C 34625.2 hPa Calm     93 % 38.1 mm 0.0 W/m2 RA
07:04 -16.4 °C -17 °C 34625.2 hPa Calm     93 % 38.1 mm 0.0 W/m2
07:09 -16.4 °C -17 °C 34625.2 hPa Calm     93 % 38.1 mm 0.0 W/m2 RA
07:14 -16.4 °C -17 °C 34625.2 hPa Calm     93 % 38.1 mm 0.0 W/m2 RA
07:19 -16.4 °C -17 °C 34625.2 hPa Calm     93 % 38.1 mm 0.0 W/m2
07:24 -16.4 °C -16.9 °C 34635.4 hPa Calm     93 % 38.1 mm 0.0 W/m2 RA
07:29 -16.4 °C -16.9 °C 34635.4 hPa Calm     93 % 38.1 mm 0.0 W/m2
07:34 -16.4 °C -16.9 °C 34635.4 hPa Calm     93 % 38.1 mm 0.0 W/m2 CLR
07:39 -16.3 °C -16.9 °C 34635.4 hPa Calm     93 % 38.1 mm 0.0 W/m2 RA
07:44 -16.3 °C -16.9 °C 34635.4 hPa Calm     93 % 38.1 mm 0.0 W/m2
07:49 -16.3 °C -16.8 °C 34635.4 hPa Calm     93 % 38.1 mm 0.0 W/m2 RA
07:54 -16.3 °C -16.8 °C 34635.4 hPa Calm     93 % 33.02 mm 0.0 W/m2
07:59 -16.3 °C -16.8 °C 34635.4 hPa Calm     93 % 33.02 mm 0.0 W/m2 RA
08:04 -16.2 °C -16.8 °C 34635.4 hPa Calm     93 % 38.1 mm 0.0 W/m2 RA
08:09 -16.2 °C -16.8 °C 34635.4 hPa Calm     93 % 33.02 mm 0.0 W/m2
08:14 -16.2 °C -16.8 °C 34635.4 hPa Calm     93 % 25.4 mm 0.0 W/m2 CLR
08:19 -16.3 °C -16.8 °C 34635.4 hPa Calm     93 % 33.02 mm 0.0 W/m2 RA
08:24 -16.3 °C -16.8 °C 34635.4 hPa Calm     93 % 25.4 mm 0.0 W/m2 CLR
08:29 -16.3 °C -16.8 °C 34635.4 hPa Calm     93 % 25.4 mm 0.0 W/m2 OVC
08:34 -16.2 °C -16.8 °C 34635.4 hPa Calm     93 % 25.4 mm 0.0 W/m2 OVC
08:39 -16.2 °C -16.8 °C 34635.4 hPa Calm     93 % 25.4 mm 0.0 W/m2 RA
08:44 -16.2 °C -16.8 °C 34635.4 hPa Calm     93 % 25.4 mm 0.0 W/m2 CLR
08:49 -16.2 °C -16.8 °C 34635.4 hPa Calm     93 % 20.32 mm 5.0 W/m2 OVC
08:54 -16.2 °C -16.7 °C 34635.4 hPa Calm     94 % 20.32 mm 9.0 W/m2 OVC
08:59 -16.2 °C -16.6 °C 34635.4 hPa Calm     94 % 20.32 mm 11.0 W/m2 RA
09:04 -16.2 °C -16.6 °C 34635.4 hPa Calm     94 % 20.32 mm 9.0 W/m2 RA
09:09 -16.1 °C -16.6 °C 34635.4 hPa Calm     94 % 20.32 mm 9.0 W/m2
09:14 -16.1 °C -16.6 °C 34645.6 hPa Calm     94 % 25.4 mm 11.0 W/m2 RA
09:19 -16.1 °C -16.6 °C 34635.4 hPa Calm     93 % 20.32 mm 14.0 W/m2
09:24 -16.1 °C -16.6 °C 34645.6 hPa Calm     93 % 25.4 mm 16.0 W/m2 RA
09:29 -16 °C -16.6 °C 34645.6 hPa Calm     93 % 25.4 mm 19.0 W/m2 CLR
09:34 -16 °C -16.6 °C 34645.6 hPa Calm     93 % 33.02 mm 21.0 W/m2 RA
09:39 -16 °C -16.6 °C 34645.6 hPa Calm     93 % 33.02 mm 23.0 W/m2 RA
09:44 -16 °C -16.6 °C 34645.6 hPa Calm     93 % 33.02 mm 25.0 W/m2 BKN
09:49 -16.1 °C -16.6 °C 34645.6 hPa Calm     93 % 38.1 mm 19.0 W/m2 RA
09:54 -16.1 °C -16.6 °C 34645.6 hPa Calm     93 % 38.1 mm 16.0 W/m2 RA
09:59 -16.1 °C -16.6 °C 34645.6 hPa Calm     93 % 38.1 mm 14.0 W/m2 RA
10:04 -16 °C -16.6 °C 34645.6 hPa Calm     93 % 38.1 mm 16.0 W/m2 RA
10:09 -16 °C -16.6 °C 34659.1 hPa Calm     93 % 38.1 mm 16.0 W/m2 OVC
10:14 -16 °C -16.6 °C 34645.6 hPa Calm     93 % 38.1 mm 18.0 W/m2 OVC
10:19 -16 °C -16.6 °C 34659.1 hPa Calm     93 % 38.1 mm 19.0 W/m2 OVC
10:24 -16 °C -16.6 °C 34645.6 hPa Calm     93 % 33.02 mm 18.0 W/m2 OVC
10:29 -16 °C -16.6 °C 34645.6 hPa Calm     93 % 33.02 mm 21.0 W/m2 OVC
10:34 -16 °C -16.6 °C 34659.1 hPa Calm     93 % 25.4 mm 21.0 W/m2 OVC
10:39 -16 °C -16.6 °C 34659.1 hPa Calm     93 % 20.32 mm 23.0 W/m2 OVC
10:40 -16 °C -16.6 °C 34659.1 hPa Calm     93 % 20.32 mm 23.0 W/m2 OVC
10:45 -16 °C -16.6 °C 34659.1 hPa Calm     93 % 20.32 mm 26.0 W/m2 OVC
10:50 -15.9 °C -16.4 °C 34659.1 hPa Calm     94 % 20.32 mm 40.0 W/m2 RA
10:55 -15.9 °C -16.4 °C 34659.1 hPa Calm     94 % 12.7 mm 35.0 W/m2 BKN
11:00 -15.9 °C -16.4 °C 34659.1 hPa Calm     94 % 12.7 mm 35.0 W/m2 BKN
11:05 -15.8 °C -16.3 °C 34659.1 hPa Calm     94 % 7.62 mm 44.0 W/m2 BKN
11:10 -15.8 °C -16.3 °C 34659.1 hPa Calm     94 % 7.62 mm 53.0 W/m2 BKN
11:15 -15.8 °C -16.3 °C 34659.1 hPa Calm     94 % 7.62 mm 47.0 W/m2 BKN
11:20 -15.7 °C -16.2 °C 34659.1 hPa Calm     94 % 7.62 mm 51.0 W/m2 BKN
11:25 -15.7 °C -16.2 °C 34659.1 hPa Calm     94 % 7.62 mm 39.0 W/m2 BKN
11:30 -15.7 °C -16.2 °C 34659.1 hPa Calm     94 % 7.62 mm 37.0 W/m2 BKN
11:35 -15.7 °C -16.2 °C 34659.1 hPa Calm     94 % 7.62 mm 32.0 W/m2 BKN
11:40 -15.7 °C -16.2 °C 34659.1 hPa Calm     94 % 12.7 mm 28.0 W/m2 RA
11:45 -15.7 °C -16.2 °C 34659.1 hPa Calm     94 % 12.7 mm 26.0 W/m2 BKN
11:50 -15.7 °C -16.2 °C 34659.1 hPa Calm     94 % 7.62 mm 39.0 W/m2 BKN
11:55 -15.7 °C -16.2 °C 34659.1 hPa Calm     94 % 7.62 mm 44.0 W/m2 BKN
12:00 -15.7 °C -16.2 °C 34645.6 hPa Calm     94 % 7.62 mm 40.0 W/m2 BKN
12:05 -15.6 °C -16.1 °C 34645.6 hPa Calm     94 % 7.62 mm 39.0 W/m2 BKN
12:10 -15.6 °C -16.1 °C 34645.6 hPa Calm     94 % 7.62 mm 42.0 W/m2 BKN
12:15 -15.6 °C -16.1 °C 34645.6 hPa Calm     94 % 7.62 mm 58.0 W/m2 BKN
12:20 -15.6 °C -16.1 °C 34645.6 hPa Calm     94 % 12.7 mm 84.0 W/m2 RA
12:25 -15.5 °C -16 °C 34645.6 hPa Calm     94 % 12.7 mm 76.0 W/m2 BKN
12:30 -15.4 °C -15.9 °C 34645.6 hPa Calm     94 % 12.7 mm 77.0 W/m2 RA
12:35 -15.4 °C -15.9 °C 34635.4 hPa Calm     94 % 20.32 mm 70.0 W/m2 RA
12:40 -15.4 °C -15.9 °C 34635.4 hPa WNW 9 km/h 9 km/h 94 % 12.7 mm 49.0 W/m2 BKN
12:45 -15.4 °C -15.9 °C 34635.4 hPa Calm     94 % 12.7 mm 74.0 W/m2 BKN
12:50 -15.4 °C -15.9 °C 34635.4 hPa Calm     94 % 20.32 mm 63.0 W/m2 RA
12:55 -15.4 °C -15.9 °C 34635.4 hPa Calm     94 % 20.32 mm 74.0 W/m2 BKN
13:00 -15.3 °C -15.8 °C 34635.4 hPa Calm     94 % 20.32 mm 90.0 W/m2 BKN
13:05 -15.3 °C -15.8 °C 34625.2 hPa Calm     94 % 25.4 mm 63.0 W/m2 RA
13:10 -15.3 °C -15.9 °C 34625.2 hPa Calm     93 % 33.02 mm 47.0 W/m2 RA
13:15 -15.3 °C -15.9 °C 34625.2 hPa Calm     93 % 33.02 mm 37.0 W/m2 BKN
13:20 -15.3 °C -15.9 °C 34625.2 hPa Calm     93 % 25.4 mm 49.0 W/m2 BKN
13:25 -15.3 °C -15.9 °C 34611.7 hPa Calm     93 % 25.4 mm 37.0 W/m2 BKN
13:30 -15.3 °C -15.9 °C 34611.7 hPa Calm     93 % 20.32 mm 46.0 W/m2 BKN
13:35 -15.2 °C -15.8 °C 34611.7 hPa Calm     93 % 12.7 mm 39.0 W/m2 BKN
13:40 -15.2 °C -15.8 °C 34611.7 hPa Calm     93 % 20.32 mm 49.0 W/m2 RA
13:45 -15.2 °C -15.8 °C 34611.7 hPa Calm     93 % 20.32 mm 42.0 W/m2 BKN
13:50 -15.2 °C -15.8 °C 34601.5 hPa Calm     93 % 12.7 mm 33.0 W/m2 BKN
13:55 -15.2 °C -15.7 °C 34601.5 hPa Calm     93 % 12.7 mm 37.0 W/m2 BKN
14:00 -15.2 °C -15.7 °C 34601.5 hPa Calm     93 % 12.7 mm 32.0 W/m2 BKN
14:05 -15.2 °C -15.7 °C 34601.5 hPa Calm     93 % 12.7 mm 25.0 W/m2 BKN
14:10 -15.2 °C -15.8 °C 34601.5 hPa Calm     93 % 7.62 mm 26.0 W/m2 BKN
14:15 -15.2 °C -15.8 °C 34601.5 hPa Calm     93 % 12.7 mm 28.0 W/m2 RA
14:20 -15.2 °C -15.8 °C 34601.5 hPa Calm     93 % 12.7 mm 21.0 W/m2 BKN
14:25 -15.2 °C -15.8 °C 34601.5 hPa Calm     93 % 12.7 mm 19.0 W/m2 OVC
14:30 -15.2 °C -15.8 °C 34601.5 hPa Calm     93 % 12.7 mm 25.0 W/m2 OVC
14:35 -15.2 °C -15.8 °C 34601.5 hPa Calm     93 % 12.7 mm 28.0 W/m2 RA
14:40 -15.2 °C -15.7 °C 34601.5 hPa Calm     94 % 12.7 mm 37.0 W/m2 BKN
14:45 -15.2 °C -15.7 °C 34601.5 hPa Calm     93 % 12.7 mm 39.0 W/m2 RA
14:50 -15.1 °C -15.7 °C 34601.5 hPa Calm     93 % 12.7 mm 47.0 W/m2 BKN
14:55 -15.1 °C -15.7 °C 34601.5 hPa Calm     93 % 20.32 mm 51.0 W/m2 RA
15:00 -15.1 °C -15.7 °C 34601.5 hPa Calm     93 % 20.32 mm 53.0 W/m2 BKN
15:05 -15.1 °C -15.7 °C 34601.5 hPa Calm     93 % 25.4 mm 63.0 W/m2 RA
15:10 -15.1 °C -15.7 °C 34601.5 hPa Calm     93 % 33.02 mm 54.0 W/m2 RA
15:15 -15 °C -15.6 °C 34591.4 hPa Calm     93 % 25.4 mm 44.0 W/m2 BKN
15:20 -14.9 °C -15.4 °C 34591.4 hPa Calm     94 % 33.02 mm 35.0 W/m2 RA
15:25 -14.9 °C -15.4 °C 34591.4 hPa Calm     94 % 33.02 mm 30.0 W/m2 BKN
15:30 -14.9 °C -15.4 °C 34591.4 hPa Calm     93 % 33.02 mm 25.0 W/m2 BKN
15:35 -14.8 °C -15.3 °C 34591.4 hPa Calm     94 % 25.4 mm 33.0 W/m2 BKN
15:40 -14.8 °C -15.2 °C 34591.4 hPa Calm     94 % 33.02 mm 39.0 W/m2 RA
15:45 -14.8 °C -15.3 °C 34591.4 hPa Calm     93 % 25.4 mm 39.0 W/m2 BKN
15:50 -14.8 °C -15.3 °C 34591.4 hPa Calm     93 % 33.02 mm 26.0 W/m2 RA
15:55 -14.8 °C -15.3 °C 34591.4 hPa Calm     93 % 25.4 mm 19.0 W/m2 BKN
16:00 -14.8 °C -15.4 °C 34591.4 hPa Calm     93 % 38.1 mm 19.0 W/m2 RA
16:05 -14.8 °C -15.4 °C 34591.4 hPa Calm     93 % 33.02 mm 19.0 W/m2 BKN
16:10 -14.8 °C -15.4 °C 34591.4 hPa Calm     93 % 33.02 mm 21.0 W/m2 RA
16:40 -14.8 °C -15.4 °C 34577.8 hPa Calm     93 % 38.1 mm 12.0 W/m2 RA
16:46 -14.8 °C -15.4 °C 34577.8 hPa Calm     93 % 50.8 mm 14.0 W/m2 RA
16:50 -14.8 °C -15.4 °C 34577.8 hPa Calm     93 % 50.8 mm 11.0 W/m2 RA
16:55 -14.8 °C -15.4 °C 34577.8 hPa Calm     93 % 58.42 mm 7.0 W/m2 RA
17:01 -14.9 °C -15.4 °C 34577.8 hPa Calm     93 % 45.72 mm 9.0 W/m2
17:06 -14.9 °C -15.4 °C 34577.8 hPa Calm     93 % 45.72 mm 9.0 W/m2 CLR
17:11 -14.9 °C -15.4 °C 34577.8 hPa Calm     93 % 45.72 mm 11.0 W/m2 RA
17:16 -14.9 °C -15.5 °C 34577.8 hPa Calm     93 % 38.1 mm 9.0 W/m2 CLR
17:21 -14.9 °C -15.5 °C 34577.8 hPa Calm     93 % 38.1 mm 7.0 W/m2 RA
17:26 -14.9 °C -15.6 °C 34577.8 hPa Calm     93 % 38.1 mm 7.0 W/m2 CLR
17:31 -14.9 °C -15.5 °C 34577.8 hPa Calm     93 % 38.1 mm 5.0 W/m2 RA
17:41 -14.9 °C -15.4 °C 34591.4 hPa Calm     94 % 38.1 mm 0.0 W/m2 OVC
17:46 -14.9 °C -15.4 °C 34591.4 hPa Calm     94 % 25.4 mm 0.0 W/m2 OVC
17:51 -14.9 °C -15.4 °C 34591.4 hPa Calm     94 % 20.32 mm 0.0 W/m2 OVC
17:56 -14.9 °C -15.5 °C 34591.4 hPa Calm     93 % 12.7 mm 0.0 W/m2 OVC
18:01 -14.9 °C -15.5 °C 34591.4 hPa Calm     93 % 12.7 mm 0.0 W/m2 OVC
18:06 -14.9 °C -15.5 °C 34591.4 hPa Calm     93 % 12.7 mm 0.0 W/m2 CLR
18:11 -14.9 °C -15.4 °C 34591.4 hPa Calm     94 % 12.7 mm 0.0 W/m2 RA
18:16 -14.9 °C -15.4 °C 34591.4 hPa Calm     94 % 12.7 mm 0.0 W/m2
18:21 -14.9 °C -15.4 °C 34591.4 hPa Calm     94 % 12.7 mm 0.0 W/m2 CLR
18:26 -15 °C -15.5 °C 34591.4 hPa Calm     94 % 12.7 mm 0.0 W/m2 CLR
18:31 -15 °C -15.5 °C 34591.4 hPa Calm     94 % 7.62 mm 0.0 W/m2 CLR
18:36 -15 °C -15.5 °C 34591.4 hPa Calm     94 % 7.62 mm 0.0 W/m2 CLR
18:41 -15.1 °C -15.5 °C 34601.5 hPa Calm     94 % 7.62 mm 0.0 W/m2 CLR
18:46 -15 °C -15.5 °C 34601.5 hPa Calm     94 % 12.7 mm 0.0 W/m2 RA
18:51 -15 °C -15.5 °C 34601.5 hPa Calm     94 % 12.7 mm 0.0 W/m2 CLR
18:56 -15 °C -15.5 °C 34601.5 hPa Calm     94 % 12.7 mm 0.0 W/m2 CLR
19:01 -15.1 °C -15.5 °C 34601.5 hPa Calm     94 % 12.7 mm 0.0 W/m2 RA
19:06 -15.1 °C -15.5 °C 34601.5 hPa Calm     94 % 12.7 mm 0.0 W/m2 CLR
19:11 -15.1 °C -15.5 °C 34611.7 hPa Calm     94 % 12.7 mm 0.0 W/m2 RA
19:16 -15.1 °C -15.5 °C 34611.7 hPa Calm     94 % 12.7 mm 0.0 W/m2 CLR
19:22 -15 °C -15.5 °C 34611.7 hPa Calm     94 % 12.7 mm 0.0 W/m2 CLR
19:27 -15 °C -15.5 °C 34611.7 hPa Calm     94 % 12.7 mm 0.0 W/m2 CLR
19:32 -15 °C -15.5 °C 34611.7 hPa Calm     94 % 20.32 mm 0.0 W/m2 RA
19:37 -15 °C -15.5 °C 34611.7 hPa Calm     94 % 25.4 mm 0.0 W/m2 RA
19:42 -15 °C -15.5 °C 34611.7 hPa Calm     94 % 25.4 mm 0.0 W/m2
19:47 -15 °C -15.5 °C 34611.7 hPa Calm     94 % 20.32 mm 0.0 W/m2 CLR
19:52 -15.1 °C -15.5 °C 34611.7 hPa Calm     94 % 20.32 mm 0.0 W/m2 CLR
19:57 -15.1 °C -15.6 °C 34611.7 hPa Calm     94 % 25.4 mm 0.0 W/m2 RA
20:02 -15.1 °C -15.6 °C 34611.7 hPa Calm     94 % 25.4 mm 0.0 W/m2 RA
20:07 -15.1 °C -15.6 °C 34611.7 hPa Calm     94 % 33.02 mm 0.0 W/m2 RA
20:12 -15.1 °C -15.6 °C 34625.2 hPa Calm     94 % 25.4 mm 0.0 W/m2
20:17 -15.1 °C -15.6 °C 34625.2 hPa Calm     94 % 38.1 mm 0.0 W/m2 RA
20:22 -14.9 °C -15.4 °C 34625.2 hPa East 17.9 km/h 17.9 km/h 94 % 38.1 mm 0.0 W/m2 RA
20:27 -14.8 °C -15.3 °C 34625.2 hPa Calm     94 % 45.72 mm 0.0 W/m2 RA
20:32 -14.8 °C -15.2 °C 34611.7 hPa Calm     94 % 45.72 mm 0.0 W/m2 RA
20:37 -14.7 °C -15.2 °C 34611.7 hPa Calm     94 % 45.72 mm 0.0 W/m2 RA
20:42 -14.7 °C -15.2 °C 34625.2 hPa Calm     94 % 45.72 mm 0.0 W/m2
20:47 -14.7 °C -15.2 °C 34625.2 hPa Calm     94 % 45.72 mm 0.0 W/m2 CLR
20:52 -14.6 °C -15.1 °C 34625.2 hPa Calm     94 % 38.1 mm 0.0 W/m2 CLR
20:57 -14.6 °C -15.1 °C 34625.2 hPa Calm     94 % 38.1 mm 0.0 W/m2 CLR
21:02 -14.6 °C -15.1 °C 34625.2 hPa Calm     94 % 38.1 mm 0.0 W/m2 RA
21:07 -14.6 °C -15.1 °C 34611.7 hPa Calm     94 % 38.1 mm 0.0 W/m2
21:12 -14.7 °C -15.2 °C 34611.7 hPa Calm     94 % 38.1 mm 0.0 W/m2 CLR
21:17 -14.7 °C -15.2 °C 34611.7 hPa Calm     93 % 25.4 mm 0.0 W/m2 CLR
21:22 -14.7 °C -15.3 °C 34611.7 hPa Calm     93 % 20.32 mm 0.0 W/m2 CLR
21:27 -14.7 °C -15.3 °C 34611.7 hPa Calm     93 % 12.7 mm 0.0 W/m2 CLR
21:32 -14.8 °C -15.3 °C 34611.7 hPa Calm     93 % 12.7 mm 0.0 W/m2 CLR
21:37 -14.8 °C -15.3 °C 34611.7 hPa Calm     93 % 7.62 mm 0.0 W/m2 CLR
21:42 -14.8 °C -15.4 °C 34611.7 hPa Calm     93 % 7.62 mm 0.0 W/m2 CLR
21:47 -14.8 °C -15.3 °C 34611.7 hPa Calm     94 % 7.62 mm 0.0 W/m2 CLR
21:52 -14.8 °C -15.3 °C 34625.2 hPa Calm     94 % 7.62 mm 0.0 W/m2 CLR
21:57 -14.8 °C -15.3 °C 34625.2 hPa Calm     94 % 7.62 mm 0.0 W/m2 CLR
22:02 -14.8 °C -15.3 °C 34625.2 hPa Calm     94 % 0 mm 0.0 W/m2 CLR
22:07 -14.8 °C -15.3 °C 34625.2 hPa Calm     94 % 0 mm 0.0 W/m2 CLR
22:12 -14.8 °C -15.3 °C 34625.2 hPa Calm     94 % 0 mm 0.0 W/m2 CLR
22:17 -14.8 °C -15.3 °C 34625.2 hPa Calm     94 % 0 mm 0.0 W/m2 CLR
22:22 -14.8 °C -15.3 °C 34625.2 hPa Calm     94 % 0 mm 0.0 W/m2 CLR
22:27 -14.8 °C -15.3 °C 34625.2 hPa Calm     94 % 0 mm 0.0 W/m2 CLR
22:32 -14.8 °C -15.3 °C 34611.7 hPa Calm     94 % 0 mm 0.0 W/m2 CLR
22:37 -14.8 °C -15.3 °C 34611.7 hPa Calm     94 % 0 mm 0.0 W/m2 CLR
22:42 -14.8 °C -15.3 °C 34611.7 hPa Calm     94 % 0 mm 0.0 W/m2 CLR
22:47 -14.8 °C -15.3 °C 34611.7 hPa Calm     94 % 0 mm 0.0 W/m2 CLR
22:52 -14.8 °C -15.3 °C 34611.7 hPa Calm     94 % 0 mm 0.0 W/m2 CLR
22:57 -14.8 °C -15.3 °C 34611.7 hPa Calm     94 % 0 mm 0.0 W/m2 CLR
23:02 -14.9 °C -15.4 °C 34611.7 hPa Calm     94 % 0 mm 0.0 W/m2 CLR
23:07 -14.9 °C -15.4 °C 34611.7 hPa Calm     94 % 0 mm 0.0 W/m2 CLR
23:12 -14.9 °C -15.4 °C 34611.7 hPa Calm     94 % 0 mm 0.0 W/m2 CLR
23:17 -14.9 °C -15.4 °C 34625.2 hPa Calm     94 % 0 mm 0.0 W/m2 CLR
23:22 -14.9 °C -15.4 °C 34611.7 hPa Calm     94 % 0 mm 0.0 W/m2 CLR
23:27 -14.9 °C -15.4 °C 34611.7 hPa Calm     94 % 0 mm 0.0 W/m2 CLR
23:32 -14.9 °C -15.4 °C 34611.7 hPa Calm     94 % 0 mm 0.0 W/m2 CLR
23:37 -14.9 °C -15.4 °C 34611.7 hPa Calm     94 % 0 mm 0.0 W/m2 CLR
23:42 -14.9 °C -15.4 °C 34611.7 hPa Calm     94 % 0 mm 0.0 W/m2 CLR
23:47 -14.9 °C -15.4 °C 34611.7 hPa Calm     94 % 0 mm 0.0 W/m2 CLR
23:52 -15 °C -15.5 °C 34611.7 hPa Calm     94 % 0 mm 0.0 W/m2 CLR
23:57 -15 °C -15.5 °C 34611.7 hPa Calm     94 % 0 mm 0.0 W/m2 CLR
Lo Temps de Massalio
Compliments of Weather Underground - 1.25 mb